Weather History for Destin, FL

Change the Weather History Date:

Friday, June 21, 2013

  Actual Average Record
Temperature  
Mean Temperature 81 °F -  
Max Temperature 88 °F 85 °F 93 °F (2007)
Min Temperature 75 °F 72 °F 71 °F (1998)
Cooling Degree Days 16    
Growing Degree Days 31 (Base 50)    
Moisture  
Dew Point 73 °F    
Average Humidity 76    
Maximum Humidity 91    
Minimum Humidity 61    
Precipitation  
Precipitation 0.00 in - - ()
Sea Level Pressure  
Sea Level Pressure 30.09 in    
Wind  
Wind Speed 6 mph (East)    
Max Wind Speed 12 mph    
Max Gust Speed 16 mph    
Visibility 10 miles    
Events      
Averages and records for this station are not official NWS values.
T = Trace of Precipitation, MM = Missing Value Source: NWS Daily Summary

Daily Weather History Graph

Daily Weather History Graph

Search for Another Location

Airport:

Trip Planner

Search our weather history database for the weather conditions in past years. The results will help you decide how hot, cold, wet, or windy it might be!

Date:

Astronomy

Jun. 21, 2013 Rise Set
Actual Time 5:44 AM CDT 7:51 PM CDT
Civil Twilight 5:16 AM CDT 8:18 PM CDT
Nautical Twilight 4:43 AM CDT 8:52 PM CDT
Astronomical Twilight 4:07 AM CDT 9:28 PM CDT
Moon 6:05 PM CDT (6/21) 3:53 AM CDT (6/21)
Length of Visible Light 15h 01m
Length of Day
14h 06m
Waxing Gibbous, 95% of the Moon is Illuminated
Jun 21
Waxing Gibbous
Jun 23
Full
Jun 29
Last Quarter
Jul 8
New
Jul 15
First Quarter

Hourly Weather History & Observations

Time (CDT) Temp. Heat Index Dew Point Humidity Pressure Visibility Wind Dir Wind Speed Gust Speed Precip Events Conditions
12:53 AM 78.1 °F - 73.0 °F 84% 30.07 in 10.0 mi North 6.9 mph - N/A   Clear
1:53 AM 77.0 °F - 71.1 °F 82% 30.06 in 10.0 mi North 5.8 mph - N/A   Clear
2:53 AM 77.0 °F - 72.0 °F 84% 30.05 in 10.0 mi North 5.8 mph - N/A   Clear
3:53 AM 77.0 °F - 72.0 °F 84% 30.05 in 10.0 mi NE 3.5 mph - N/A   Clear
4:17 AM 77.0 °F - 73.4 °F 89% 30.06 in 10.0 mi Calm Calm - N/A   Partly Cloudy
4:53 AM 75.9 °F - 73.0 °F 91% 30.05 in 10.0 mi East 4.6 mph - N/A   Clear
5:53 AM 77.0 °F - 73.0 °F 88% 30.07 in 10.0 mi ENE 4.6 mph - N/A   Clear
6:27 AM 77.0 °F - 73.4 °F 89% 30.09 in 10.0 mi NE 10.4 mph - N/A   Scattered Clouds
6:36 AM 77.0 °F - 73.4 °F 89% 30.09 in 10.0 mi ENE 5.8 mph - N/A   Mostly Cloudy
6:53 AM 77.0 °F - 73.0 °F 88% 30.09 in 10.0 mi ENE 6.9 mph - N/A   Overcast
7:24 AM 77.0 °F - 71.6 °F 83% 30.10 in 10.0 mi East 10.4 mph 16.1 mph N/A   Scattered Clouds
7:53 AM 78.1 °F - 72.0 °F 81% 30.11 in 10.0 mi East 11.5 mph - N/A   Clear
8:53 AM 81.0 °F 85.8 °F 73.0 °F 77% 30.12 in 10.0 mi ENE 10.4 mph - N/A   Clear
9:53 AM 82.9 °F 88.8 °F 73.0 °F 72% 30.13 in 10.0 mi ENE 9.2 mph - N/A   Clear
10:53 AM 84.9 °F 90.7 °F 72.0 °F 65% 30.13 in 10.0 mi ENE 8.1 mph - N/A   Clear
11:53 AM 87.1 °F 93.6 °F 72.0 °F 61% 30.13 in 10.0 mi East 6.9 mph - N/A   Clear
12:32 PM 84.2 °F 90.9 °F 73.4 °F 70% 30.13 in 10.0 mi Variable 4.6 mph - N/A   Mostly Cloudy
12:43 PM 86.0 °F 93.4 °F 73.4 °F 66% 30.12 in 10.0 mi South 4.6 mph - N/A   Scattered Clouds
12:53 PM 86.0 °F 93.0 °F 73.0 °F 65% 30.12 in 10.0 mi South 4.6 mph - N/A   Scattered Clouds
1:53 PM 84.9 °F 91.4 °F 73.0 °F 67% 30.11 in 10.0 mi Variable 4.6 mph - N/A   Scattered Clouds
2:53 PM 84.0 °F 90.2 °F 73.0 °F 69% 30.10 in 10.0 mi SW 4.6 mph - N/A   Partly Cloudy
3:53 PM 87.1 °F 94.5 °F 73.0 °F 63% 30.08 in 10.0 mi South 5.8 mph - N/A   Clear
4:53 PM 86.0 °F 92.2 °F 72.0 °F 63% 30.07 in 10.0 mi Variable 3.5 mph - N/A   Clear
5:53 PM 84.0 °F 89.6 °F 72.0 °F 67% 30.07 in 10.0 mi SE 6.9 mph - N/A   Clear
6:53 PM 84.9 °F 90.7 °F 72.0 °F 65% 30.07 in 10.0 mi South 3.5 mph - N/A   Clear
7:53 PM 82.0 °F 86.7 °F 72.0 °F 71% 30.07 in 10.0 mi SE 6.9 mph - N/A   Clear
8:53 PM 82.0 °F 87.4 °F 73.0 °F 74% 30.09 in 10.0 mi ESE 4.6 mph - N/A   Scattered Clouds
9:53 PM 81.0 °F 84.9 °F 71.1 °F 72% 30.09 in 10.0 mi ESE 3.5 mph - N/A   Clear
10:53 PM 79.0 °F - 73.0 °F 82% 30.10 in 10.0 mi Calm Calm - N/A   Clear
11:53 PM 77.0 °F - 72.0 °F 84% 30.09 in 10.0 mi East 3.5 mph - N/A   Clear